Time,TemperatureF,DewpointF,PressureIn,WindDirection,WindDirectionDegrees,WindSpeedMPH,WindSpeedGustMPH,Humidity,HourlyPrecipIn,Conditions,Clouds,dailyrainin,SoftwareType,DateUTC
2013-10-27 00:04:00,32.9,31.0,29.89,West,269,5.0,7.0,94,0.00,,,0.00,weatherlink.com 1.10,2013-10-27 04:04:00,
2013-10-27 00:19:00,33.0,32.0,29.89,West,269,3.0,5.0,94,0.00,,,0.00,weatherlink.com 1.10,2013-10-27 04:19:00,
2013-10-27 00:34:00,32.9,31.0,29.89,West,269,0.0,5.0,94,0.00,,,0.00,weatherlink.com 1.10,2013-10-27 04:34:00,
2013-10-27 00:49:00,33.1,32.0,29.89,WNW,294,3.0,6.0,94,0.00,,,0.00,weatherlink.com 1.10,2013-10-27 04:49:00,
2013-10-27 01:04:00,33.1,32.0,29.89,NW,312,2.0,3.0,94,0.00,,,0.00,weatherlink.com 1.10,2013-10-27 05:04:00,
2013-10-27 01:19:00,32.9,31.0,29.89,West,281,0.0,5.0,94,0.00,,,0.00,weatherlink.com 1.10,2013-10-27 05:19:00,
2013-10-27 01:34:00,32.7,31.0,29.89,WNW,287,1.0,3.0,94,0.00,,,0.00,weatherlink.com 1.10,2013-10-27 05:34:00,
2013-10-27 01:49:00,32.5,31.0,29.89,West,274,0.0,2.0,94,0.00,,,0.00,weatherlink.com 1.10,2013-10-27 05:49:00,
2013-10-27 02:04:00,32.5,31.0,29.89,West,281,2.0,2.0,94,0.00,,,0.00,weatherlink.com 1.10,2013-10-27 06:04:00,
2013-10-27 02:19:00,32.8,31.0,29.90,WNW,287,1.0,2.0,94,0.00,,,0.00,weatherlink.com 1.10,2013-10-27 06:19:00,
2013-10-27 02:35:00,32.9,31.0,29.90,WNW,283,0.0,3.0,94,0.00,,,0.00,weatherlink.com 1.10,2013-10-27 06:35:00,
2013-10-27 02:49:00,33.2,32.0,29.90,West,276,0.0,4.0,94,0.00,,,0.00,weatherlink.com 1.10,2013-10-27 06:49:00,
2013-10-27 03:04:00,33.2,32.0,29.90,WNW,300,4.0,5.0,94,0.00,,,0.00,weatherlink.com 1.10,2013-10-27 07:04:00,
2013-10-27 03:19:00,33.0,32.0,29.89,WSW,245,2.0,5.0,94,0.00,,,0.00,weatherlink.com 1.10,2013-10-27 07:19:00,
2013-10-27 03:34:00,32.9,31.0,29.90,West,281,1.0,4.0,94,0.00,,,0.00,weatherlink.com 1.10,2013-10-27 07:34:00,
2013-10-27 03:49:00,32.9,31.0,29.90,West,267,0.0,3.0,94,0.00,,,0.00,weatherlink.com 1.10,2013-10-27 07:49:00,
2013-10-27 04:04:00,32.9,31.0,29.90,West,267,3.0,5.0,94,0.00,,,0.00,weatherlink.com 1.10,2013-10-27 08:04:00,
2013-10-27 04:20:00,32.6,31.0,29.90,WNW,288,2.0,4.0,94,0.00,,,0.00,weatherlink.com 1.10,2013-10-27 08:20:00,
2013-10-27 04:35:00,32.3,31.0,29.90,West,267,2.0,3.0,94,0.00,,,0.00,weatherlink.com 1.10,2013-10-27 08:35:00,
2013-10-27 04:50:00,31.8,30.0,29.89,WNW,288,0.0,2.0,94,0.00,,,0.00,weatherlink.com 1.10,2013-10-27 08:50:00,
2013-10-27 05:05:00,31.4,30.0,29.90,West,272,0.0,2.0,94,0.00,,,0.00,weatherlink.com 1.10,2013-10-27 09:05:00,
2013-10-27 05:20:00,31.2,30.0,29.90,WSW,256,0.0,1.0,94,0.00,,,0.00,weatherlink.com 1.10,2013-10-27 09:20:00,
2013-10-27 05:35:00,30.9,29.0,29.90,West,264,0.0,1.0,94,0.00,,,0.00,weatherlink.com 1.10,2013-10-27 09:35:00,
2013-10-27 05:50:00,30.7,29.0,29.91,WNW,284,1.0,2.0,94,0.00,,,0.00,weatherlink.com 1.10,2013-10-27 09:50:00,
2013-10-27 06:05:00,31.1,30.0,29.91,WSW,242,0.0,3.0,94,0.00,,,0.00,weatherlink.com 1.10,2013-10-27 10:05:00,
2013-10-27 06:20:00,31.0,30.0,29.91,West,260,0.0,1.0,94,0.00,,,0.00,weatherlink.com 1.10,2013-10-27 10:20:00,
2013-10-27 06:35:00,30.9,29.0,29.91,West,264,0.0,1.0,94,0.00,,,0.00,weatherlink.com 1.10,2013-10-27 10:35:00,
2013-10-27 06:50:00,30.9,29.0,29.91,WSW,253,0.0,0.0,94,0.00,,,0.00,weatherlink.com 1.10,2013-10-27 10:50:00,
2013-10-27 07:05:00,30.6,29.0,29.91,West,263,0.0,0.0,94,0.00,,,0.00,weatherlink.com 1.10,2013-10-27 11:05:00,
2013-10-27 07:20:00,30.2,29.0,29.91,West,263,0.0,0.0,94,0.00,,,0.00,weatherlink.com 1.10,2013-10-27 11:20:00,
2013-10-27 07:35:00,29.8,28.0,29.91,West,263,0.0,0.0,94,0.00,,,0.00,weatherlink.com 1.10,2013-10-27 11:35:00,
2013-10-27 07:50:00,29.0,28.0,29.91,West,263,0.0,0.0,94,0.00,,,0.00,weatherlink.com 1.10,2013-10-27 11:50:00,
2013-10-27 08:05:00,28.9,27.0,29.91,West,263,0.0,0.0,94,0.00,,,0.00,weatherlink.com 1.10,2013-10-27 12:05:00,
2013-10-27 08:20:00,30.0,29.0,29.91,West,263,0.0,0.0,94,0.00,,,0.00,weatherlink.com 1.10,2013-10-27 12:20:00,
2013-10-27 08:35:00,31.0,30.0,29.91,West,262,0.0,0.0,94,0.00,,,0.00,weatherlink.com 1.10,2013-10-27 12:35:00,
2013-10-27 08:50:00,32.0,31.0,29.91,WSW,252,0.0,1.0,94,0.00,,,0.00,weatherlink.com 1.10,2013-10-27 12:50:00,
2013-10-27 09:05:00,32.6,31.0,29.92,West,263,1.0,2.0,94,0.00,,,0.00,weatherlink.com 1.10,2013-10-27 13:05:00,
2013-10-27 09:20:00,33.1,32.0,29.92,WSW,253,0.0,0.0,94,0.00,,,0.00,weatherlink.com 1.10,2013-10-27 13:20:00,
2013-10-27 09:35:00,33.3,32.0,29.92,SW,221,0.0,1.0,93,0.00,,,0.00,weatherlink.com 1.10,2013-10-27 13:35:00,
2013-10-27 09:50:00,34.0,32.0,29.92,West,271,0.0,1.0,93,0.00,,,0.00,weatherlink.com 1.10,2013-10-27 13:50:00,
2013-10-27 10:05:00,35.3,33.0,29.92,West,260,4.0,4.0,91,0.00,,,0.00,weatherlink.com 1.10,2013-10-27 14:05:00,
2013-10-27 10:20:00,36.3,34.0,29.92,West,276,2.0,3.0,90,0.00,,,0.00,weatherlink.com 1.10,2013-10-27 14:20:00,
2013-10-27 10:35:00,37.3,34.0,29.92,West,268,1.0,6.0,87,0.00,,,0.00,weatherlink.com 1.10,2013-10-27 14:35:00,
2013-10-27 10:50:00,37.9,34.0,29.92,West,278,2.0,5.0,85,0.00,,,0.00,weatherlink.com 1.10,2013-10-27 14:50:00,
2013-10-27 11:05:00,38.7,34.0,29.92,West,266,0.0,6.0,84,0.00,,,0.00,weatherlink.com 1.10,2013-10-27 15:05:00,
2013-10-27 11:20:00,39.6,35.0,29.92,WSW,243,2.0,6.0,83,0.00,,,0.00,weatherlink.com 1.10,2013-10-27 15:20:00,
2013-10-27 11:35:00,40.5,35.0,29.91,WNW,292,2.0,5.0,82,0.00,,,0.00,weatherlink.com 1.10,2013-10-27 15:35:00,
2013-10-27 11:50:00,40.9,35.0,29.91,WSW,253,3.0,8.0,79,0.00,,,0.00,weatherlink.com 1.10,2013-10-27 15:50:00,
2013-10-27 12:05:00,40.7,35.0,29.92,SSW,200,0.0,7.0,79,0.00,,,0.00,weatherlink.com 1.10,2013-10-27 16:05:00,
2013-10-27 12:20:00,40.4,34.0,29.92,South,188,0.0,6.0,79,0.00,,,0.00,weatherlink.com 1.10,2013-10-27 16:20:00,
2013-10-27 12:35:00,40.3,35.0,29.91,South,181,0.0,4.0,80,0.00,,,0.00,weatherlink.com 1.10,2013-10-27 16:35:00,
2013-10-27 12:50:00,40.4,35.0,29.91,SSW,208,3.0,6.0,81,0.00,,,0.00,weatherlink.com 1.10,2013-10-27 16:50:00,
2013-10-27 13:05:00,41.4,36.0,29.90,SSE,150,4.0,10.0,81,0.00,,,0.00,weatherlink.com 1.10,2013-10-27 17:05:00,
2013-10-27 13:21:00,42.4,37.0,29.89,WSW,240,1.0,8.0,80,0.00,,,0.00,weatherlink.com 1.10,2013-10-27 17:21:00,
2013-10-27 13:36:00,42.2,37.0,29.89,SSW,212,5.0,9.0,81,0.00,,,0.00,weatherlink.com 1.10,2013-10-27 17:36:00,
2013-10-27 13:51:00,42.3,38.0,29.88,SSE,167,4.0,6.0,83,0.00,,,0.00,weatherlink.com 1.10,2013-10-27 17:51:00,
2013-10-27 14:06:00,41.8,38.0,29.87,SW,224,4.0,6.0,85,0.00,,,0.00,weatherlink.com 1.10,2013-10-27 18:06:00,
2013-10-27 14:21:00,40.8,37.0,29.88,SSW,208,2.0,7.0,86,0.00,,,0.00,weatherlink.com 1.10,2013-10-27 18:21:00,
2013-10-27 14:36:00,39.7,37.0,29.87,West,268,4.0,7.0,91,0.02,,,0.02,weatherlink.com 1.10,2013-10-27 18:36:00,
2013-10-27 14:51:00,39.8,38.0,29.86,West,278,2.0,4.0,92,0.02,,,0.02,weatherlink.com 1.10,2013-10-27 18:51:00,
2013-10-27 15:06:00,39.7,38.0,29.86,SE,134,1.0,6.0,92,0.03,,,0.03,weatherlink.com 1.10,2013-10-27 19:06:00,
2013-10-27 15:21:00,40.0,38.0,29.86,South,186,2.0,6.0,93,0.04,,,0.04,weatherlink.com 1.10,2013-10-27 19:21:00,
2013-10-27 15:36:00,39.8,38.0,29.86,SSW,198,0.0,6.0,92,0.02,,,0.04,weatherlink.com 1.10,2013-10-27 19:36:00,
2013-10-27 15:51:00,39.4,38.0,29.85,SSE,160,0.0,5.0,93,0.03,,,0.05,weatherlink.com 1.10,2013-10-27 19:51:00,
2013-10-27 16:06:00,39.6,38.0,29.84,South,190,2.0,5.0,93,0.03,,,0.06,weatherlink.com 1.10,2013-10-27 20:06:00,
2013-10-27 16:21:00,40.3,39.0,29.84,SW,218,2.0,5.0,93,0.02,,,0.06,weatherlink.com 1.10,2013-10-27 20:21:00,
2013-10-27 16:36:00,41.0,39.0,29.84,WSW,242,2.0,5.0,93,0.02,,,0.06,weatherlink.com 1.10,2013-10-27 20:36:00,
2013-10-27 16:51:00,41.4,39.0,29.84,West,260,0.0,5.0,92,0.01,,,0.06,weatherlink.com 1.10,2013-10-27 20:51:00,
2013-10-27 17:06:00,41.3,39.0,29.85,WSW,257,0.0,3.0,92,0.01,,,0.07,weatherlink.com 1.10,2013-10-27 21:06:00,
2013-10-27 17:21:00,41.4,39.0,29.85,WSW,250,2.0,5.0,92,0.01,,,0.07,weatherlink.com 1.10,2013-10-27 21:21:00,
2013-10-27 17:36:00,41.2,39.0,29.85,WNW,287,6.0,9.0,92,0.02,,,0.08,weatherlink.com 1.10,2013-10-27 21:36:00,
2013-10-27 17:51:00,40.8,39.0,29.85,West,270,0.0,3.0,92,0.02,,,0.08,weatherlink.com 1.10,2013-10-27 21:51:00,
2013-10-27 18:06:00,40.4,39.0,29.85,SSW,205,0.0,2.0,93,0.02,,,0.09,weatherlink.com 1.10,2013-10-27 22:06:00,
2013-10-27 18:21:00,40.1,38.0,29.86,West,274,0.0,2.0,93,0.03,,,0.10,weatherlink.com 1.10,2013-10-27 22:21:00,
2013-10-27 18:37:00,39.9,38.0,29.86,West,273,0.0,0.0,93,0.02,,,0.10,weatherlink.com 1.10,2013-10-27 22:37:00,
2013-10-27 18:51:00,39.7,38.0,29.87,West,273,0.0,0.0,93,0.03,,,0.11,weatherlink.com 1.10,2013-10-27 22:51:00,
2013-10-27 19:06:00,39.5,38.0,29.87,West,272,0.0,0.0,93,0.02,,,0.11,weatherlink.com 1.10,2013-10-27 23:06:00,
2013-10-27 19:21:00,39.3,38.0,29.87,SSE,158,0.0,1.0,93,0.01,,,0.11,weatherlink.com 1.10,2013-10-27 23:21:00,
2013-10-27 19:36:00,39.1,37.0,29.87,SSE,158,0.0,0.0,93,0.01,,,0.11,weatherlink.com 1.10,2013-10-27 23:36:00,
2013-10-27 19:51:00,38.9,37.0,29.88,WNW,283,0.0,1.0,93,0.00,,,0.11,weatherlink.com 1.10,2013-10-27 23:51:00,
2013-10-27 20:06:00,38.8,37.0,29.89,WNW,283,0.0,0.0,93,0.01,,,0.12,weatherlink.com 1.10,2013-10-28 00:06:00,
2013-10-27 20:21:00,38.7,37.0,29.89,WNW,283,0.0,0.0,94,0.01,,,0.12,weatherlink.com 1.10,2013-10-28 00:21:00,
2013-10-27 20:36:00,38.9,37.0,29.89,West,264,0.0,2.0,94,0.01,,,0.12,weatherlink.com 1.10,2013-10-28 00:36:00,
2013-10-27 20:51:00,39.1,37.0,29.89,West,272,0.0,2.0,93,0.02,,,0.13,weatherlink.com 1.10,2013-10-28 00:51:00,
2013-10-27 21:06:00,39.1,37.0,29.90,West,276,0.0,3.0,93,0.01,,,0.13,weatherlink.com 1.10,2013-10-28 01:06:00,
2013-10-27 21:21:00,38.9,37.0,29.91,WSW,252,0.0,1.0,93,0.01,,,0.13,weatherlink.com 1.10,2013-10-28 01:21:00,
2013-10-27 21:36:00,38.7,37.0,29.91,West,259,0.0,4.0,93,0.01,,,0.13,weatherlink.com 1.10,2013-10-28 01:36:00,
2013-10-27 21:51:00,38.8,37.0,29.92,WNW,297,4.0,9.0,93,0.00,,,0.13,weatherlink.com 1.10,2013-10-28 01:51:00,
2013-10-27 22:06:00,38.8,37.0,29.93,West,266,1.0,5.0,93,0.00,,,0.13,weatherlink.com 1.10,2013-10-28 02:06:00,
2013-10-27 22:21:00,38.6,37.0,29.93,SW,222,0.0,5.0,93,0.00,,,0.13,weatherlink.com 1.10,2013-10-28 02:21:00,
2013-10-27 22:36:00,38.5,37.0,29.94,West,278,1.0,5.0,93,0.00,,,0.13,weatherlink.com 1.10,2013-10-28 02:36:00,
2013-10-27 22:51:00,38.5,36.0,29.95,WNW,283,2.0,7.0,92,0.00,,,0.13,weatherlink.com 1.10,2013-10-28 02:51:00,
2013-10-27 23:06:00,38.5,36.0,29.95,West,281,3.0,11.0,92,0.00,,,0.13,weatherlink.com 1.10,2013-10-28 03:06:00,
2013-10-27 23:21:00,38.5,36.0,29.96,West,263,3.0,9.0,91,0.00,,,0.13,weatherlink.com 1.10,2013-10-28 03:21:00,
2013-10-27 23:36:00,38.0,36.0,29.96,WNW,284,2.0,7.0,91,0.00,,,0.13,weatherlink.com 1.10,2013-10-28 03:36:00,
2013-10-27 23:51:00,37.2,35.0,29.96,WSW,249,0.0,6.0,92,0.00,,,0.13,weatherlink.com 1.10,2013-10-28 03:51:00,